Time,TemperatureF,DewpointF,PressureIn,WindDirection,WindDirectionDegrees,WindSpeedMPH,WindSpeedGustMPH,Humidity,HourlyPrecipIn,Conditions,Clouds,dailyrainin,SolarRadiationWatts/m^2,SoftwareType,DateUTC
2013-03-16 00:00:00,38.1,33.4,29.85,SSE,167,0.0,0.0,80,0.00,,,0.00,0.0,meteohub,2013-03-16 04:00:00,
2013-03-16 00:03:00,37.9,33.6,29.85,SSE,167,0.0,0.0,81,0.00,,,0.00,0.0,meteohub,2013-03-16 04:03:00,
2013-03-16 00:09:00,37.8,33.4,29.84,SSE,167,0.0,0.0,81,0.00,,,0.00,0.0,meteohub,2013-03-16 04:09:00,
2013-03-16 00:12:00,37.8,33.4,29.85,SSE,167,0.0,0.0,81,0.00,,,0.00,0.0,meteohub,2013-03-16 04:12:00,
2013-03-16 00:18:00,37.6,33.3,29.85,SSE,167,0.0,0.0,81,0.00,,,0.00,0.0,meteohub,2013-03-16 04:18:00,
2013-03-16 00:24:00,37.4,33.3,29.84,SSE,167,0.0,0.0,82,0.00,,,0.00,0.0,meteohub,2013-03-16 04:24:00,
2013-03-16 00:31:00,37.2,33.1,29.84,SSE,167,0.0,0.0,82,0.00,,,0.00,0.0,meteohub,2013-03-16 04:31:00,
2013-03-16 00:37:00,37.0,32.9,29.84,SSE,167,0.0,0.0,82,0.00,,,0.00,0.0,meteohub,2013-03-16 04:37:00,
2013-03-16 00:42:00,36.9,33.1,29.84,SSE,167,0.0,0.0,83,0.00,,,0.00,0.0,meteohub,2013-03-16 04:42:00,
2013-03-16 00:47:00,36.9,33.1,29.84,SSE,167,0.0,2.0,83,0.00,,,0.00,0.0,meteohub,2013-03-16 04:47:00,
2013-03-16 00:52:00,36.7,32.9,29.84,SSE,167,0.0,2.0,83,0.00,,,0.00,0.0,meteohub,2013-03-16 04:52:00,
2013-03-16 00:57:00,36.7,32.9,29.84,SSE,167,0.0,2.0,83,0.00,,,0.00,0.0,meteohub,2013-03-16 04:57:00,
2013-03-16 01:02:00,36.5,32.7,29.84,SSE,167,0.0,0.0,83,0.00,,,0.00,0.0,meteohub,2013-03-16 05:02:00,
2013-03-16 01:07:00,36.5,32.7,29.84,SSE,167,0.0,0.0,83,0.00,,,0.00,0.0,meteohub,2013-03-16 05:07:00,
2013-03-16 01:13:00,36.3,32.5,29.83,SSE,167,0.0,0.0,83,0.00,,,0.00,0.0,meteohub,2013-03-16 05:13:00,
2013-03-16 01:19:00,36.1,32.7,29.84,SSE,167,0.0,0.0,84,0.00,,,0.00,0.0,meteohub,2013-03-16 05:19:00,
2013-03-16 01:25:00,36.0,32.5,29.83,SSE,167,0.0,0.0,84,0.00,,,0.00,0.0,meteohub,2013-03-16 05:25:00,
2013-03-16 01:31:00,36.0,32.5,29.84,ENE,72,2.0,4.0,84,0.00,,,0.00,0.0,meteohub,2013-03-16 05:31:00,
2013-03-16 01:37:00,35.8,32.4,29.84,ENE,71,1.0,4.0,84,0.00,,,0.00,0.0,meteohub,2013-03-16 05:37:00,
2013-03-16 01:42:00,35.8,32.4,29.83,ENE,71,0.0,4.0,84,0.00,,,0.00,0.0,meteohub,2013-03-16 05:42:00,
2013-03-16 01:47:00,35.8,32.4,29.83,ENE,71,0.0,4.0,84,0.00,,,0.00,0.0,meteohub,2013-03-16 05:47:00,
2013-03-16 01:52:00,35.8,32.4,29.83,ENE,71,1.0,3.0,84,0.00,,,0.00,0.0,meteohub,2013-03-16 05:52:00,
2013-03-16 01:57:00,35.6,32.4,29.83,WNW,295,1.0,2.0,85,0.00,,,0.00,0.0,meteohub,2013-03-16 05:57:00,
2013-03-16 02:02:00,35.6,32.4,29.83,WNW,295,0.0,4.0,85,0.00,,,0.00,0.0,meteohub,2013-03-16 06:02:00,
2013-03-16 02:08:00,35.4,32.2,29.83,North,11,2.0,4.0,85,0.00,,,0.00,0.0,meteohub,2013-03-16 06:08:00,
2013-03-16 02:14:00,35.2,32.0,29.83,North,11,2.0,3.0,85,0.00,,,0.00,0.0,meteohub,2013-03-16 06:14:00,
2013-03-16 02:20:00,35.1,31.8,29.83,North,11,0.0,3.0,85,0.00,,,0.00,0.0,meteohub,2013-03-16 06:20:00,
2013-03-16 02:27:00,35.1,31.8,29.82,North,11,0.0,2.0,85,0.00,,,0.00,0.0,meteohub,2013-03-16 06:27:00,
2013-03-16 02:32:00,34.9,31.6,29.83,North,11,0.0,2.0,85,0.00,,,0.00,0.0,meteohub,2013-03-16 06:32:00,
2013-03-16 02:37:00,34.9,32.0,29.82,North,11,0.0,2.0,86,0.00,,,0.00,0.0,meteohub,2013-03-16 06:37:00,
2013-03-16 02:42:00,34.9,32.0,29.83,North,11,0.0,2.0,86,0.00,,,0.00,0.0,meteohub,2013-03-16 06:42:00,
2013-03-16 02:48:00,34.9,32.0,29.82,North,11,0.0,2.0,86,0.00,,,0.00,0.0,meteohub,2013-03-16 06:48:00,
2013-03-16 02:54:00,34.9,32.0,29.83,North,11,0.0,3.0,86,0.00,,,0.00,0.0,meteohub,2013-03-16 06:54:00,
2013-03-16 03:00:00,35.1,32.2,29.82,North,11,0.0,3.0,86,0.00,,,0.00,0.0,meteohub,2013-03-16 07:00:00,
2013-03-16 03:06:00,35.1,32.2,29.82,North,11,0.0,2.0,86,0.00,,,0.00,0.0,meteohub,2013-03-16 07:06:00,
2013-03-16 03:12:00,35.2,32.4,29.82,North,11,0.0,2.0,86,0.00,,,0.00,0.0,meteohub,2013-03-16 07:12:00,
2013-03-16 03:17:00,35.4,32.5,29.82,North,11,1.0,2.0,86,0.00,,,0.00,0.0,meteohub,2013-03-16 07:17:00,
2013-03-16 03:22:00,35.4,32.5,29.82,North,11,0.0,2.0,86,0.00,,,0.00,0.0,meteohub,2013-03-16 07:22:00,
2013-03-16 03:27:00,35.6,32.7,29.82,North,11,0.0,2.0,86,0.00,,,0.00,0.0,meteohub,2013-03-16 07:27:00,
2013-03-16 03:32:00,35.6,32.7,29.81,North,11,0.0,2.0,86,0.00,,,0.00,0.0,meteohub,2013-03-16 07:32:00,
2013-03-16 03:37:00,35.6,32.4,29.81,North,11,0.0,0.0,85,0.00,,,0.00,0.0,meteohub,2013-03-16 07:37:00,
2013-03-16 03:42:00,35.6,32.4,29.81,North,11,0.0,0.0,85,0.00,,,0.00,0.0,meteohub,2013-03-16 07:42:00,
2013-03-16 03:49:00,35.6,32.4,29.81,North,11,0.0,0.0,85,0.00,,,0.00,0.0,meteohub,2013-03-16 07:49:00,
2013-03-16 03:55:00,35.4,32.2,29.81,North,11,0.0,0.0,85,0.00,,,0.00,0.0,meteohub,2013-03-16 07:55:00,
2013-03-16 04:01:00,35.2,32.0,29.81,North,11,0.0,0.0,85,0.00,,,0.00,0.0,meteohub,2013-03-16 08:01:00,
2013-03-16 04:07:00,35.1,31.8,29.80,North,11,0.0,0.0,85,0.00,,,0.00,0.0,meteohub,2013-03-16 08:07:00,
2013-03-16 04:13:00,34.9,31.6,29.80,North,11,0.0,0.0,85,0.00,,,0.00,0.0,meteohub,2013-03-16 08:13:00,
2013-03-16 04:19:00,34.7,31.8,29.80,North,11,0.0,0.0,86,0.00,,,0.00,0.0,meteohub,2013-03-16 08:19:00,
2013-03-16 04:25:00,34.5,31.6,29.80,North,11,0.0,0.0,86,0.00,,,0.00,0.0,meteohub,2013-03-16 08:25:00,
2013-03-16 04:32:00,34.3,31.5,29.80,North,11,0.0,0.0,86,0.00,,,0.00,0.0,meteohub,2013-03-16 08:32:00,
2013-03-16 04:37:00,34.2,31.3,29.80,North,11,0.0,2.0,86,0.00,,,0.00,0.0,meteohub,2013-03-16 08:37:00,
2013-03-16 04:42:00,34.0,31.1,29.80,North,11,0.0,2.0,86,0.00,,,0.00,0.0,meteohub,2013-03-16 08:42:00,
2013-03-16 04:47:00,34.0,31.1,29.80,North,11,0.0,2.0,86,0.00,,,0.00,0.0,meteohub,2013-03-16 08:47:00,
2013-03-16 04:53:00,33.8,30.9,29.80,North,11,0.0,0.0,86,0.00,,,0.00,0.0,meteohub,2013-03-16 08:53:00,
2013-03-16 04:59:00,33.6,30.7,29.80,North,11,0.0,0.0,86,0.00,,,0.00,0.0,meteohub,2013-03-16 08:59:00,
2013-03-16 05:05:00,33.4,32.4,29.80,North,11,1.0,0.0,93,0.00,,,0.00,0.0,meteohub,2013-03-16 09:05:00,
2013-03-16 05:11:00,33.3,30.6,29.80,North,11,0.0,2.0,87,0.00,,,0.00,0.0,meteohub,2013-03-16 09:11:00,
2013-03-16 05:17:00,33.1,30.4,29.80,North,11,0.0,3.0,87,0.00,,,0.00,0.0,meteohub,2013-03-16 09:17:00,
2013-03-16 05:22:00,33.1,30.4,29.80,North,11,0.0,3.0,87,0.00,,,0.00,0.0,meteohub,2013-03-16 09:22:00,
2013-03-16 05:27:00,32.9,30.2,29.80,North,11,0.0,1.0,87,0.00,,,0.00,0.0,meteohub,2013-03-16 09:27:00,
2013-03-16 05:32:00,32.9,30.2,29.81,North,11,0.0,1.0,87,0.00,,,0.00,0.0,meteohub,2013-03-16 09:32:00,
2013-03-16 05:37:00,32.9,30.6,29.81,North,11,0.0,0.0,88,0.00,,,0.00,0.0,meteohub,2013-03-16 09:37:00,
2013-03-16 05:42:00,32.9,30.6,29.81,North,11,0.0,0.0,88,0.00,,,0.00,0.0,meteohub,2013-03-16 09:42:00,
2013-03-16 05:47:00,32.9,30.6,29.81,North,11,0.0,0.0,88,0.00,,,0.00,0.0,meteohub,2013-03-16 09:47:00,
2013-03-16 05:52:00,32.9,30.6,29.81,North,11,0.0,0.0,88,0.00,,,0.00,0.0,meteohub,2013-03-16 09:52:00,
2013-03-16 06:00:00,32.9,30.6,29.81,North,11,0.0,0.0,88,0.00,,,0.00,0.0,meteohub,2013-03-16 10:00:00,
2013-03-16 06:06:00,32.9,30.6,29.81,North,11,0.0,0.0,88,0.00,,,0.00,0.0,meteohub,2013-03-16 10:06:00,
2013-03-16 06:12:00,32.9,30.6,29.81,North,11,0.0,0.0,88,0.00,,,0.00,0.0,meteohub,2013-03-16 10:12:00,
2013-03-16 06:17:00,33.1,30.7,29.80,North,11,0.0,0.0,88,0.00,,,0.00,0.0,meteohub,2013-03-16 10:17:00,
2013-03-16 06:22:00,33.3,30.9,29.80,North,11,0.0,0.0,88,0.00,,,0.00,0.0,meteohub,2013-03-16 10:22:00,
2013-03-16 06:27:00,33.3,30.9,29.80,North,11,0.0,0.0,88,0.00,,,0.00,0.0,meteohub,2013-03-16 10:27:00,
2013-03-16 06:32:00,33.6,31.3,29.80,North,11,0.0,0.0,88,0.00,,,0.00,0.0,meteohub,2013-03-16 10:32:00,
2013-03-16 06:37:00,33.8,31.5,29.80,North,11,0.0,0.0,88,0.00,,,0.00,0.0,meteohub,2013-03-16 10:37:00,
2013-03-16 06:42:00,34.0,31.8,29.80,North,11,0.0,0.0,89,0.00,,,0.00,0.0,meteohub,2013-03-16 10:42:00,
2013-03-16 06:47:00,34.2,31.8,29.81,North,11,0.0,0.0,88,0.00,,,0.00,0.0,meteohub,2013-03-16 10:47:00,
2013-03-16 06:52:00,34.5,32.2,29.81,North,11,0.0,0.0,88,0.00,,,0.00,0.0,meteohub,2013-03-16 10:52:00,
2013-03-16 06:57:00,34.7,32.5,29.83,North,11,0.0,0.0,89,0.00,,,0.00,0.0,meteohub,2013-03-16 10:57:00,
2013-03-16 07:02:00,34.9,32.7,29.83,North,11,0.0,0.0,89,0.01,,,0.01,0.0,meteohub,2013-03-16 11:02:00,
2013-03-16 07:07:00,35.1,32.9,29.83,North,11,0.0,0.0,89,0.02,,,0.02,0.0,meteohub,2013-03-16 11:07:00,
2013-03-16 07:13:00,35.4,33.3,29.83,North,11,0.0,2.0,89,0.03,,,0.03,0.0,meteohub,2013-03-16 11:13:00,
2013-03-16 07:19:00,35.6,33.4,29.85,North,11,0.0,2.0,89,0.03,,,0.03,0.0,meteohub,2013-03-16 11:19:00,
2013-03-16 07:25:00,35.8,33.6,29.85,North,11,0.0,2.0,89,0.04,,,0.04,0.0,meteohub,2013-03-16 11:25:00,
2013-03-16 07:32:00,35.8,33.6,29.84,North,11,1.0,2.0,89,0.05,,,0.05,0.0,meteohub,2013-03-16 11:32:00,
2013-03-16 07:37:00,36.0,33.8,29.83,North,11,0.0,1.0,89,0.05,,,0.05,0.0,meteohub,2013-03-16 11:37:00,
2013-03-16 07:42:00,36.1,34.0,29.83,North,11,2.0,2.0,89,0.06,,,0.06,0.0,meteohub,2013-03-16 11:42:00,
2013-03-16 07:47:00,36.5,34.7,29.83,North,11,0.0,3.0,90,0.06,,,0.06,5.0,meteohub,2013-03-16 11:47:00,
2013-03-16 07:52:00,36.7,34.9,29.83,North,11,0.0,4.0,90,0.06,,,0.06,5.0,meteohub,2013-03-16 11:52:00,
2013-03-16 07:57:00,36.7,34.9,29.82,North,11,0.0,4.0,90,0.05,,,0.06,5.0,meteohub,2013-03-16 11:57:00,
2013-03-16 08:02:00,36.9,35.1,29.82,North,11,0.0,0.0,90,0.04,,,0.06,7.0,meteohub,2013-03-16 12:02:00,
2013-03-16 08:07:00,36.9,35.1,29.82,North,11,0.0,0.0,90,0.04,,,0.06,12.0,meteohub,2013-03-16 12:07:00,
2013-03-16 08:14:00,37.2,35.4,29.82,North,11,0.0,0.0,90,0.03,,,0.06,19.0,meteohub,2013-03-16 12:14:00,
2013-03-16 08:20:00,37.4,35.6,29.81,North,11,0.0,2.0,90,0.02,,,0.06,14.0,meteohub,2013-03-16 12:20:00,
2013-03-16 08:26:00,37.6,35.8,29.81,North,11,1.0,2.0,90,0.02,,,0.06,9.0,meteohub,2013-03-16 12:26:00,
2013-03-16 08:32:00,37.8,36.0,29.81,North,11,0.0,2.0,90,0.01,,,0.06,11.0,meteohub,2013-03-16 12:32:00,
2013-03-16 08:37:00,37.9,36.1,29.81,North,11,0.0,2.0,90,0.00,,,0.06,21.0,meteohub,2013-03-16 12:37:00,
2013-03-16 08:42:00,38.1,36.5,29.81,North,11,0.0,2.0,91,0.00,,,0.06,33.0,meteohub,2013-03-16 12:42:00,
2013-03-16 08:47:00,38.5,36.9,29.81,North,11,0.0,2.0,91,0.00,,,0.06,46.0,meteohub,2013-03-16 12:47:00,
2013-03-16 08:52:00,38.5,36.9,29.81,North,11,0.0,2.0,91,0.00,,,0.06,56.0,meteohub,2013-03-16 12:52:00,
2013-03-16 08:57:00,38.8,37.2,29.81,North,11,0.0,2.0,91,0.00,,,0.06,109.0,meteohub,2013-03-16 12:57:00,
2013-03-16 09:02:00,39.2,37.6,29.80,North,11,0.0,0.0,91,0.00,,,0.06,76.0,meteohub,2013-03-16 13:02:00,
2013-03-16 09:09:00,39.4,37.8,29.80,North,11,1.0,0.0,91,0.00,,,0.06,49.0,meteohub,2013-03-16 13:09:00,
2013-03-16 09:15:00,39.9,38.3,29.81,North,11,0.0,1.0,91,0.00,,,0.06,67.0,meteohub,2013-03-16 13:15:00,
2013-03-16 09:21:00,40.1,38.5,29.79,North,11,0.0,1.0,91,0.00,,,0.06,116.0,meteohub,2013-03-16 13:21:00,
2013-03-16 09:27:00,40.3,38.7,29.79,North,11,0.0,2.0,91,0.00,,,0.06,227.0,meteohub,2013-03-16 13:27:00,
2013-03-16 09:32:00,40.8,39.2,29.79,North,11,0.0,2.0,91,0.00,,,0.06,364.0,meteohub,2013-03-16 13:32:00,
2013-03-16 09:37:00,41.7,40.1,29.79,North,11,0.0,2.0,91,0.00,,,0.06,202.0,meteohub,2013-03-16 13:37:00,
2013-03-16 09:43:00,42.3,41.0,29.79,North,11,0.0,1.0,92,0.00,,,0.06,193.0,meteohub,2013-03-16 13:43:00,
2013-03-16 09:49:00,42.8,41.5,29.79,North,11,0.0,1.0,92,0.00,,,0.06,223.0,meteohub,2013-03-16 13:49:00,
2013-03-16 09:55:00,43.3,41.7,29.78,North,11,0.0,1.0,91,0.00,,,0.06,125.0,meteohub,2013-03-16 13:55:00,
2013-03-16 10:01:00,43.9,42.3,29.78,North,11,0.0,2.0,91,0.00,,,0.06,167.0,meteohub,2013-03-16 14:01:00,
2013-03-16 10:07:00,44.1,42.4,29.78,North,11,0.0,2.0,91,0.00,,,0.06,230.0,meteohub,2013-03-16 14:07:00,
2013-03-16 10:12:00,44.6,43.0,29.77,North,11,0.0,2.0,91,0.00,,,0.06,272.0,meteohub,2013-03-16 14:12:00,
2013-03-16 10:17:00,45.0,43.3,29.78,North,11,0.0,1.0,91,0.00,,,0.06,327.0,meteohub,2013-03-16 14:17:00,
2013-03-16 10:22:00,45.7,44.1,29.77,North,11,0.0,1.0,91,0.00,,,0.06,225.0,meteohub,2013-03-16 14:22:00,
2013-03-16 10:28:00,46.4,44.8,29.77,North,11,0.0,1.0,91,0.00,,,0.06,209.0,meteohub,2013-03-16 14:28:00,
2013-03-16 10:34:00,46.8,44.8,29.77,North,11,0.0,1.0,90,0.00,,,0.06,200.0,meteohub,2013-03-16 14:34:00,
2013-03-16 10:40:00,47.1,45.0,29.77,North,11,0.0,1.0,89,0.00,,,0.06,192.0,meteohub,2013-03-16 14:40:00,
2013-03-16 10:46:00,47.5,45.3,29.77,North,11,0.0,2.0,89,0.00,,,0.06,179.0,meteohub,2013-03-16 14:46:00,
2013-03-16 10:52:00,47.7,45.5,29.76,North,11,0.0,2.0,89,0.00,,,0.06,216.0,meteohub,2013-03-16 14:52:00,
2013-03-16 10:57:00,48.0,45.5,29.76,North,11,1.0,2.0,88,0.00,,,0.06,211.0,meteohub,2013-03-16 14:57:00,
2013-03-16 11:02:00,48.4,45.5,29.75,North,11,0.0,2.0,87,0.00,,,0.06,169.0,meteohub,2013-03-16 15:02:00,
2013-03-16 11:07:00,48.7,45.9,29.76,North,11,0.0,2.0,87,0.00,,,0.06,216.0,meteohub,2013-03-16 15:07:00,
2013-03-16 11:14:00,49.3,46.4,29.75,North,11,0.0,2.0,87,0.00,,,0.06,207.0,meteohub,2013-03-16 15:14:00,
2013-03-16 11:20:00,49.8,46.9,29.74,North,11,0.0,1.0,87,0.00,,,0.06,341.0,meteohub,2013-03-16 15:20:00,
2013-03-16 11:26:00,50.5,47.5,29.75,North,11,0.0,2.0,86,0.00,,,0.06,413.0,meteohub,2013-03-16 15:26:00,
2013-03-16 11:32:00,51.3,47.8,29.75,North,11,1.0,2.0,85,0.00,,,0.06,322.0,meteohub,2013-03-16 15:32:00,
2013-03-16 11:37:00,52.0,48.2,29.75,North,11,0.0,2.0,84,0.00,,,0.06,283.0,meteohub,2013-03-16 15:37:00,
2013-03-16 11:42:00,52.5,47.5,29.74,South,179,2.0,6.0,80,0.00,,,0.06,364.0,meteohub,2013-03-16 15:42:00,
2013-03-16 11:47:00,53.1,48.0,29.74,ENE,71,1.0,6.0,80,0.00,,,0.06,374.0,meteohub,2013-03-16 15:47:00,
2013-03-16 11:53:00,54.0,48.2,29.73,East,89,2.0,6.0,78,0.00,,,0.06,515.0,meteohub,2013-03-16 15:53:00,
2013-03-16 11:59:00,54.9,48.4,29.73,East,89,2.0,4.0,76,0.00,,,0.06,260.0,meteohub,2013-03-16 15:59:00,
2013-03-16 12:05:00,55.6,49.1,29.73,SSE,155,1.0,4.0,76,0.00,,,0.06,454.0,meteohub,2013-03-16 16:05:00,
2013-03-16 12:12:00,56.3,48.4,29.73,SSE,148,1.0,4.0,72,0.00,,,0.06,313.0,meteohub,2013-03-16 16:12:00,
2013-03-16 12:17:00,56.7,49.1,29.72,SSE,148,3.0,3.0,73,0.00,,,0.06,302.0,meteohub,2013-03-16 16:17:00,
2013-03-16 12:22:00,57.0,49.1,29.73,SSE,147,0.0,4.0,72,0.00,,,0.06,338.0,meteohub,2013-03-16 16:22:00,
2013-03-16 12:27:00,57.4,50.2,29.72,SSE,147,1.0,4.0,74,0.00,,,0.06,387.0,meteohub,2013-03-16 16:27:00,
2013-03-16 12:33:00,58.1,50.2,29.72,SSE,147,0.0,4.0,72,0.00,,,0.06,504.0,meteohub,2013-03-16 16:33:00,
2013-03-16 12:39:00,59.0,50.0,29.72,ENE,76,3.0,3.0,69,0.00,,,0.06,311.0,meteohub,2013-03-16 16:39:00,
2013-03-16 12:45:00,59.9,50.5,29.72,East,86,3.0,4.0,68,0.00,,,0.06,304.0,meteohub,2013-03-16 16:45:00,
2013-03-16 12:51:00,60.3,50.0,29.71,ENE,71,4.0,6.0,66,0.00,,,0.06,383.0,meteohub,2013-03-16 16:51:00,
2013-03-16 12:57:00,60.6,50.0,29.71,ENE,73,0.0,6.0,65,0.00,,,0.06,352.0,meteohub,2013-03-16 16:57:00,
2013-03-16 13:02:00,60.8,50.2,29.71,East,90,2.0,6.0,65,0.00,,,0.06,425.0,meteohub,2013-03-16 17:02:00,
2013-03-16 13:09:00,61.5,50.9,29.70,East,89,2.0,5.0,65,0.00,,,0.06,626.0,meteohub,2013-03-16 17:09:00,
2013-03-16 13:16:00,62.4,50.9,29.70,SE,131,1.0,4.0,63,0.00,,,0.06,728.0,meteohub,2013-03-16 17:16:00,
2013-03-16 13:22:00,63.0,48.9,29.70,SSE,167,6.0,6.0,57,0.00,,,0.06,612.0,meteohub,2013-03-16 17:22:00,
2013-03-16 13:28:00,63.5,49.8,29.70,SE,125,1.0,7.0,58,0.00,,,0.06,664.0,meteohub,2013-03-16 17:28:00,
2013-03-16 13:34:00,64.4,50.2,29.70,SSW,211,3.0,7.0,57,0.00,,,0.06,807.0,meteohub,2013-03-16 17:34:00,
2013-03-16 13:40:00,64.8,50.5,29.70,South,191,4.0,7.0,57,0.00,,,0.06,494.0,meteohub,2013-03-16 17:40:00,
2013-03-16 13:46:00,65.1,49.5,29.70,South,182,2.0,9.0,54,0.00,,,0.06,478.0,meteohub,2013-03-16 17:46:00,
2013-03-16 13:52:00,64.9,48.9,29.69,SW,234,4.0,9.0,53,0.00,,,0.06,287.0,meteohub,2013-03-16 17:52:00,
2013-03-16 13:57:00,64.8,49.1,29.69,SSE,155,3.0,9.0,54,0.00,,,0.06,192.0,meteohub,2013-03-16 17:57:00,
2013-03-16 14:02:00,64.6,48.9,29.69,NNW,347,4.0,6.0,54,0.00,,,0.06,243.0,meteohub,2013-03-16 18:02:00,
2013-03-16 14:07:00,64.6,49.5,29.68,WSW,241,0.0,6.0,55,0.00,,,0.06,301.0,meteohub,2013-03-16 18:07:00,
2013-03-16 14:12:00,64.8,49.6,29.68,SSE,156,3.0,6.0,55,0.00,,,0.06,381.0,meteohub,2013-03-16 18:12:00,
2013-03-16 14:17:00,64.9,49.8,29.67,South,189,7.0,7.0,55,0.00,,,0.06,842.0,meteohub,2013-03-16 18:17:00,
2013-03-16 14:22:00,65.5,50.4,29.67,West,265,2.0,9.0,55,0.00,,,0.06,756.0,meteohub,2013-03-16 18:22:00,
2013-03-16 14:29:00,66.2,50.0,29.66,South,188,8.0,9.0,53,0.00,,,0.06,309.0,meteohub,2013-03-16 18:29:00,
2013-03-16 14:35:00,66.0,50.4,29.65,South,178,2.0,12.0,54,0.00,,,0.06,371.0,meteohub,2013-03-16 18:35:00,
2013-03-16 14:41:00,66.2,50.0,29.65,WNW,302,4.0,14.0,53,0.00,,,0.06,533.0,meteohub,2013-03-16 18:41:00,
2013-03-16 14:47:00,66.9,50.2,29.64,WSW,252,3.0,11.0,52,0.00,,,0.06,394.0,meteohub,2013-03-16 18:47:00,
2013-03-16 14:52:00,67.3,51.1,29.64,SSE,165,3.0,11.0,53,0.00,,,0.06,308.0,meteohub,2013-03-16 18:52:00,
2013-03-16 14:57:00,67.5,50.2,29.64,WNW,282,2.0,11.0,51,0.00,,,0.06,264.0,meteohub,2013-03-16 18:57:00,
2013-03-16 15:02:00,67.6,50.4,29.63,WNW,288,3.0,9.0,51,0.00,,,0.06,323.0,meteohub,2013-03-16 19:02:00,
2013-03-16 15:07:00,67.8,50.5,29.63,ESE,102,2.0,9.0,51,0.00,,,0.06,343.0,meteohub,2013-03-16 19:07:00,
2013-03-16 15:15:00,68.4,51.1,29.62,SSE,153,3.0,9.0,51,0.00,,,0.06,288.0,meteohub,2013-03-16 19:15:00,
2013-03-16 15:21:00,68.7,51.4,29.62,WSW,245,3.0,7.0,51,0.00,,,0.06,243.0,meteohub,2013-03-16 19:21:00,
2013-03-16 15:27:00,68.7,51.8,29.61,West,281,2.0,7.0,52,0.00,,,0.06,281.0,meteohub,2013-03-16 19:27:00,
2013-03-16 15:32:00,68.9,51.6,29.61,West,281,1.0,5.0,51,0.00,,,0.06,216.0,meteohub,2013-03-16 19:32:00,
2013-03-16 15:37:00,68.7,52.3,29.61,West,279,0.0,5.0,53,0.00,,,0.06,237.0,meteohub,2013-03-16 19:37:00,
2013-03-16 15:42:00,68.7,51.8,29.60,NW,325,1.0,4.0,52,0.00,,,0.06,239.0,meteohub,2013-03-16 19:42:00,
2013-03-16 15:48:00,68.9,51.1,29.59,WNW,290,3.0,4.0,50,0.00,,,0.06,278.0,meteohub,2013-03-16 19:48:00,
2013-03-16 15:54:00,69.1,51.3,29.59,WNW,290,0.0,4.0,50,0.00,,,0.06,355.0,meteohub,2013-03-16 19:54:00,
2013-03-16 16:00:00,69.3,51.8,29.60,WNW,290,0.0,4.0,51,0.00,,,0.06,327.0,meteohub,2013-03-16 20:00:00,
2013-03-16 16:07:00,69.6,51.6,29.58,WNW,292,0.0,3.0,50,0.00,,,0.06,213.0,meteohub,2013-03-16 20:07:00,
2013-03-16 16:12:00,69.8,51.8,29.58,WNW,292,0.0,4.0,50,0.00,,,0.06,178.0,meteohub,2013-03-16 20:12:00,
2013-03-16 16:17:00,69.8,51.4,29.58,ENE,58,0.0,4.0,49,0.00,,,0.06,98.0,meteohub,2013-03-16 20:17:00,
2013-03-16 16:22:00,70.0,51.4,29.57,ENE,58,0.0,4.0,49,0.00,,,0.06,132.0,meteohub,2013-03-16 20:22:00,
2013-03-16 16:27:00,70.0,51.4,29.57,ENE,58,0.0,2.0,49,0.00,,,0.06,158.0,meteohub,2013-03-16 20:27:00,
2013-03-16 16:34:00,70.0,54.0,29.57,ENE,58,1.0,2.0,54,0.00,,,0.06,97.0,meteohub,2013-03-16 20:34:00,
2013-03-16 16:40:00,69.8,53.8,29.58,NE,55,2.0,2.0,54,0.00,,,0.06,32.0,meteohub,2013-03-16 20:40:00,
2013-03-16 16:46:00,69.1,52.2,29.58,NW,304,1.0,4.0,52,0.00,,,0.06,32.0,meteohub,2013-03-16 20:46:00,
2013-03-16 16:52:00,68.7,52.3,29.58,NW,304,0.0,4.0,53,0.00,,,0.06,12.0,meteohub,2013-03-16 20:52:00,
2013-03-16 16:57:00,68.0,52.7,29.59,WNW,294,2.0,4.0,55,0.00,,,0.06,7.0,meteohub,2013-03-16 20:57:00,
2013-03-16 17:02:00,67.3,52.0,29.63,WNW,289,1.0,6.0,55,0.00,,,0.06,0.0,meteohub,2013-03-16 21:02:00,
2013-03-16 17:07:00,66.6,51.8,29.65,East,88,7.0,7.0,56,0.00,,,0.06,0.0,meteohub,2013-03-16 21:07:00,
2013-03-16 17:14:00,63.7,53.8,29.66,West,277,4.0,19.0,67,0.00,,,0.06,0.0,meteohub,2013-03-16 21:14:00,
2013-03-16 17:27:00,59.4,53.6,29.68,WNW,282,3.0,17.0,78,0.09,,,0.15,0.0,meteohub,2013-03-16 21:27:00,
2013-03-16 17:33:00,58.1,53.6,29.63,SSE,150,4.0,17.0,82,0.19,,,0.25,9.0,meteohub,2013-03-16 21:33:00,
2013-03-16 17:39:00,57.2,53.6,29.66,NNE,12,3.0,10.0,85,0.22,,,0.28,14.0,meteohub,2013-03-16 21:39:00,
2013-03-16 17:45:00,57.0,53.8,29.66,WNW,292,3.0,9.0,86,0.22,,,0.29,28.0,meteohub,2013-03-16 21:45:00,
2013-03-16 17:51:00,56.8,54.0,29.65,South,175,1.0,7.0,87,0.24,,,0.30,130.0,meteohub,2013-03-16 21:51:00,
2013-03-16 17:57:00,57.0,54.5,29.65,South,175,1.0,6.0,88,0.24,,,0.30,188.0,meteohub,2013-03-16 21:57:00,
2013-03-16 18:02:00,57.4,55.0,29.65,South,180,0.0,4.0,89,0.24,,,0.30,98.0,meteohub,2013-03-16 22:02:00,
2013-03-16 18:09:00,57.6,55.2,29.65,WNW,287,2.0,3.0,89,0.24,,,0.30,95.0,meteohub,2013-03-16 22:09:00,
2013-03-16 18:16:00,57.6,55.2,29.65,WNW,287,2.0,4.0,89,0.23,,,0.30,72.0,meteohub,2013-03-16 22:16:00,
2013-03-16 18:22:00,57.9,55.6,29.66,WNW,288,1.0,4.0,89,0.16,,,0.30,72.0,meteohub,2013-03-16 22:22:00,
2013-03-16 18:27:00,57.9,55.6,29.66,WNW,288,0.0,3.0,89,0.11,,,0.30,72.0,meteohub,2013-03-16 22:27:00,
2013-03-16 18:34:00,57.7,55.0,29.66,WNW,288,0.0,3.0,88,0.04,,,0.30,58.0,meteohub,2013-03-16 22:34:00,
2013-03-16 18:40:00,57.6,54.9,29.67,SW,229,2.0,3.0,88,0.02,,,0.30,42.0,meteohub,2013-03-16 22:40:00,
2013-03-16 18:46:00,57.6,54.9,29.68,SW,229,0.0,3.0,88,0.00,,,0.30,33.0,meteohub,2013-03-16 22:46:00,
2013-03-16 18:52:00,57.6,55.2,29.68,SW,229,1.0,3.0,89,0.00,,,0.30,26.0,meteohub,2013-03-16 22:52:00,
2013-03-16 18:57:00,57.4,55.0,29.68,SW,229,0.0,3.0,89,0.00,,,0.30,21.0,meteohub,2013-03-16 22:57:00,
2013-03-16 19:02:00,57.4,55.0,29.68,WSW,237,0.0,2.0,89,0.00,,,0.30,18.0,meteohub,2013-03-16 23:02:00,
2013-03-16 19:07:00,57.2,54.9,29.68,WSW,237,0.0,2.0,89,0.00,,,0.30,14.0,meteohub,2013-03-16 23:07:00,
2013-03-16 19:13:00,56.7,54.1,29.68,SSW,205,2.0,2.0,88,0.00,,,0.30,11.0,meteohub,2013-03-16 23:13:00,
2013-03-16 19:19:00,56.5,54.1,29.68,SSE,147,0.0,2.0,89,0.00,,,0.30,7.0,meteohub,2013-03-16 23:19:00,
2013-03-16 19:26:00,56.3,53.8,29.68,East,94,2.0,6.0,88,0.00,,,0.30,0.0,meteohub,2013-03-16 23:26:00,
2013-03-16 19:32:00,56.3,53.8,29.69,SSE,160,3.0,12.0,88,0.00,,,0.30,0.0,meteohub,2013-03-16 23:32:00,
2013-03-16 19:37:00,56.1,53.2,29.69,West,274,1.0,12.0,87,0.00,,,0.30,0.0,meteohub,2013-03-16 23:37:00,
2013-03-16 19:44:00,56.3,53.1,29.70,SW,219,1.0,5.0,86,0.00,,,0.30,0.0,meteohub,2013-03-16 23:44:00,
2013-03-16 19:50:00,56.5,52.9,29.70,East,80,1.0,7.0,85,0.00,,,0.30,0.0,meteohub,2013-03-16 23:50:00,
2013-03-16 19:56:00,56.5,52.9,29.71,West,274,2.0,7.0,85,0.00,,,0.30,0.0,meteohub,2013-03-16 23:56:00,
2013-03-16 20:02:00,57.2,53.4,29.70,South,170,1.0,6.0,84,0.00,,,0.30,0.0,meteohub,2013-03-17 00:02:00,
2013-03-16 20:07:00,57.0,53.2,29.71,ENE,71,0.0,6.0,84,0.00,,,0.30,0.0,meteohub,2013-03-17 00:07:00,
2013-03-16 20:15:00,55.6,51.8,29.72,East,79,0.0,6.0,84,0.00,,,0.30,0.0,meteohub,2013-03-17 00:15:00,
2013-03-16 20:21:00,54.7,51.4,29.73,East,79,0.0,4.0,86,0.00,,,0.30,0.0,meteohub,2013-03-17 00:21:00,
2013-03-16 20:27:00,54.1,50.9,29.74,East,79,0.0,3.0,86,0.00,,,0.30,0.0,meteohub,2013-03-17 00:27:00,
2013-03-16 20:33:00,53.8,50.9,29.74,East,79,0.0,3.0,87,0.00,,,0.30,0.0,meteohub,2013-03-17 00:33:00,
2013-03-16 20:39:00,53.1,50.2,29.74,East,79,0.0,2.0,87,0.00,,,0.30,0.0,meteohub,2013-03-17 00:39:00,
2013-03-16 20:45:00,52.7,50.2,29.75,ENE,78,0.0,2.0,88,0.00,,,0.30,0.0,meteohub,2013-03-17 00:45:00,
2013-03-16 20:51:00,52.2,49.6,29.75,ENE,78,0.0,2.0,88,0.00,,,0.30,0.0,meteohub,2013-03-17 00:51:00,
2013-03-16 20:57:00,51.8,49.3,29.76,ENE,78,0.0,3.0,88,0.00,,,0.30,0.0,meteohub,2013-03-17 00:57:00,
2013-03-16 21:04:00,51.6,49.3,29.77,ENE,78,1.0,3.0,89,0.00,,,0.30,0.0,meteohub,2013-03-17 01:04:00,
2013-03-16 21:10:00,51.3,49.1,29.77,ENE,78,0.0,2.0,89,0.00,,,0.30,0.0,meteohub,2013-03-17 01:10:00,
2013-03-16 21:16:00,51.1,48.9,29.78,ENE,78,1.0,2.0,89,0.00,,,0.30,0.0,meteohub,2013-03-17 01:16:00,
2013-03-16 21:22:00,50.7,48.6,29.78,ENE,78,1.0,2.0,89,0.00,,,0.30,0.0,meteohub,2013-03-17 01:22:00,
2013-03-16 21:27:00,50.4,48.2,29.78,ENE,78,0.0,2.0,89,0.00,,,0.30,0.0,meteohub,2013-03-17 01:27:00,
2013-03-16 21:32:00,50.2,48.0,29.78,ENE,78,0.0,2.0,89,0.00,,,0.30,0.0,meteohub,2013-03-17 01:32:00,
2013-03-16 21:37:00,50.0,47.8,29.78,ENE,78,0.0,2.0,89,0.00,,,0.30,0.0,meteohub,2013-03-17 01:37:00,
2013-03-16 21:42:00,49.8,47.7,29.78,ENE,78,0.0,1.0,89,0.00,,,0.30,0.0,meteohub,2013-03-17 01:42:00,
2013-03-16 21:47:00,49.5,47.3,29.78,ENE,78,0.0,2.0,89,0.00,,,0.30,0.0,meteohub,2013-03-17 01:47:00,
2013-03-16 21:53:00,49.3,47.1,29.79,ENE,78,0.0,3.0,89,0.00,,,0.30,0.0,meteohub,2013-03-17 01:53:00,
2013-03-16 21:59:00,49.1,47.1,29.79,ENE,78,0.0,3.0,90,0.00,,,0.30,0.0,meteohub,2013-03-17 01:59:00,
2013-03-16 22:05:00,48.9,46.9,29.80,ENE,78,0.0,3.0,90,0.00,,,0.30,0.0,meteohub,2013-03-17 02:05:00,
2013-03-16 22:11:00,48.7,46.8,29.80,ENE,78,0.0,1.0,90,0.00,,,0.30,0.0,meteohub,2013-03-17 02:11:00,
2013-03-16 22:17:00,48.6,46.6,29.81,ENE,78,0.0,2.0,90,0.00,,,0.30,0.0,meteohub,2013-03-17 02:17:00,
2013-03-16 22:22:00,48.4,46.4,29.81,ENE,78,0.0,2.0,90,0.00,,,0.30,0.0,meteohub,2013-03-17 02:22:00,
2013-03-16 22:29:00,48.0,46.0,29.82,ENE,78,0.0,2.0,90,0.00,,,0.30,0.0,meteohub,2013-03-17 02:29:00,
2013-03-16 22:35:00,48.0,46.0,29.82,ENE,78,0.0,3.0,90,0.00,,,0.30,0.0,meteohub,2013-03-17 02:35:00,
2013-03-16 22:42:00,47.8,45.9,29.83,ENE,78,1.0,3.0,90,0.00,,,0.30,0.0,meteohub,2013-03-17 02:42:00,
2013-03-16 22:47:00,48.9,47.3,29.83,South,188,1.0,3.0,91,0.00,,,0.30,0.0,meteohub,2013-03-17 02:47:00,
2013-03-16 22:52:00,49.5,47.8,29.84,SE,127,0.0,3.0,91,0.00,,,0.30,0.0,meteohub,2013-03-17 02:52:00,
2013-03-16 22:57:00,49.3,47.7,29.84,SE,127,1.0,3.0,91,0.00,,,0.30,0.0,meteohub,2013-03-17 02:57:00,
2013-03-16 23:02:00,49.5,48.0,29.85,East,101,0.0,5.0,92,0.00,,,0.30,0.0,meteohub,2013-03-17 03:02:00,
2013-03-16 23:09:00,49.3,47.7,29.86,East,101,0.0,5.0,91,0.00,,,0.30,0.0,meteohub,2013-03-17 03:09:00,
2013-03-16 23:15:00,49.3,47.7,29.86,SSE,155,2.0,4.0,91,0.00,,,0.30,0.0,meteohub,2013-03-17 03:15:00,
2013-03-16 23:21:00,49.3,47.7,29.86,SSE,155,0.0,4.0,91,0.00,,,0.30,0.0,meteohub,2013-03-17 03:21:00,
2013-03-16 23:27:00,49.3,47.7,29.86,SSE,155,0.0,4.0,91,0.00,,,0.30,0.0,meteohub,2013-03-17 03:27:00,
2013-03-16 23:32:00,49.1,47.5,29.86,SE,146,1.0,4.0,91,0.00,,,0.30,0.0,meteohub,2013-03-17 03:32:00,
2013-03-16 23:37:00,48.9,46.9,29.87,SE,146,2.0,4.0,90,0.00,,,0.30,0.0,meteohub,2013-03-17 03:37:00,
2013-03-16 23:43:00,48.4,46.4,29.87,East,80,2.0,4.0,90,0.00,,,0.30,0.0,meteohub,2013-03-17 03:43:00,
2013-03-16 23:49:00,48.2,46.0,29.87,East,80,0.0,4.0,89,0.00,,,0.30,0.0,meteohub,2013-03-17 03:49:00,
2013-03-16 23:55:00,47.8,45.7,29.88,East,80,0.0,4.0,89,0.00,,,0.30,0.0,meteohub,2013-03-17 03:55:00,